This is the latest recevied weather packets stored in our database for station/object HOWARD. If no packets are shown the sender has not sent any weather packets the latest 10 day(s).
| Time | Temp. | Humidity | Pressure | Rain* | Wind** | Luminosity | Snow |
|---|---|---|---|---|---|---|---|
| 1788179081 | 9.44° C | 32% | 1015.3 hPa | 0 mm | - | - | - |
| 1788178481 | 9.44° C | 34% | 1015.4 hPa | 0 mm | - | - | - |
| 1788177881 | 10° C | 29% | 1015.5 hPa | 0 mm | - | - | - |
| 1788177281 | 10° C | 31% | 1015.6 hPa | 0 mm | - | - | - |
| 1788176681 | 9.44° C | 30% | 1015.7 hPa | 0 mm | - | - | - |
| 1788176081 | 9.44° C | 28% | 1015.8 hPa | 0 mm | - | - | - |
| 1788175481 | 9.44° C | 30% | 1015.3 hPa | 0 mm | - | - | - |
| 1788174881 | 9.44° C | 31% | 1015.4 hPa | 0 mm | - | - | - |
| 1788174281 | 9.44° C | - | 1015.4 hPa | 0 mm | - | - | - |
| 1788173681 | 8.89° C | 29% | 1015.5 hPa | 0 mm | - | - | - |
| 1788173081 | 8.33° C | 31% | 1015.6 hPa | 0 mm | - | - | - |
| 1788172481 | 8.89° C | 28% | 1015.6 hPa | 0 mm | - | - | - |
| 1788171881 | 8.89° C | 28% | 1015.6 hPa | 0 mm | - | - | - |
| 1788171281 | 9.44° C | 30% | 1015.7 hPa | 0 mm | - | - | - |
| 1788170681 | 9.44° C | 29% | 1015.8 hPa | 0 mm | - | - | - |
| 1788170081 | 8.89° C | 29% | 1015.9 hPa | 0 mm | - | - | - |
| 1788169481 | 8.89° C | 28% | 1016 hPa | 0 mm | - | - | - |
| 1788168881 | 8.89° C | 28% | 1016.1 hPa | 0 mm | - | - | - |
| 1788168281 | 8.89° C | 28% | 1016.2 hPa | 0 mm | - | - | - |
| 1788167682 | 8.89° C | 29% | 1016.4 hPa | 0 mm | - | - | - |
| 1788167081 | 8.89° C | 28% | 1016.4 hPa | 0 mm | - | - | - |
| 1788166481 | 8.33° C | 30% | 1015.8 hPa | 0 mm | - | - | - |
| 1788165881 | 8.33° C | 32% | 1015.8 hPa | 0 mm | - | - | - |
| 1788165281 | 8.33° C | 33% | 1016 hPa | 0 mm | - | - | - |
| 1788164683 | 8.33° C | 34% | 1016.1 hPa | 0 mm | - | - | - |
* Rain latest hour (hover to see other rain measurements)
** Current wind speed in m/s (hover to see current wind gust speed)